APL Illinois — 9HA2040 — position and weather

sailwx.info

Track history (hours):
 
Tides and Currents Weather Stations Pressure Air Temp Water Temp Dewpoint Dewpoint Depression Visibility Wind Speed Wind Dir Waves Ship Positions

APL Illinois

Last reported at 2017-Nov-23 18:54 UTC. Time now 2017-Nov-23 20:57 UTC.
Position N 40°50' E 014°17'.

Length 304 m; draft 10.3 m.

Type: Ship (hazmat cat C). MMSI: 249851000.

Date/timePositionNaut miles runAvg speedWind from/ knotsBaromVisibWave heightAir tempDewpointWater temp
2017-Nov-23 18:54N 40°50' E 014°17'0 0.0
2017-Nov-23 18:24N 40°50' E 014°17'0 0.0
2017-Nov-23 17:54N 40°50' E 014°17'0 0.0
2017-Nov-23 17:27N 40°50' E 014°17'0 0.0
2017-Nov-23 16:57N 40°50' E 014°17'0 0.4
2017-Nov-23 16:30N 40°50' E 014°17'2 3.3
2017-Nov-23 16:00N 40°48' E 014°17'4 7.7
2017-Nov-23 15:30N 40°45' E 014°17'714.6
2017-Nov-23 15:00N 40°39' E 014°11'5316.5
2017-Nov-23 11:48N 39°51' E 014°41'615.4
2017-Nov-23 11:26N 39°46' E 014°45'2015.4
2017-Nov-23 10:09N 39°30' E 014°59'215.5
2017-Nov-23 10:00N 39°28' E 015°01'1015.5
2017-Nov-23 09:23N 39°19' E 015°07'1615.3
2017-Nov-23 08:21N 39°06' E 015°17'713.6
2017-Nov-23 07:49N 38°60' E 015°23'414.3
2017-Nov-23 07:30N 38°56' E 015°26'1815.0
2017-Nov-23 06:19N 38°41' E 015°38'515.7
2017-Nov-23 06:00N 38°37' E 015°41'816.1
2017-Nov-23 05:30N 38°31' E 015°48'611.8
2017-Nov-23 05:00N 38°27' E 015°53'1 1.5
2017-Nov-23 04:28N 38°27' E 015°54'0 0.0
2017-Nov-23 03:58N 38°27' E 015°54'0 0.0
2017-Nov-23 03:28N 38°27' E 015°54'0 0.0
2017-Nov-23 02:58N 38°27' E 015°54'0 0.0
2017-Nov-23 02:28N 38°27' E 015°54'0 0.0
2017-Nov-23 01:52N 38°27' E 015°54'0 0.0
2017-Nov-23 01:28N 38°27' E 015°54'0 0.0
2017-Nov-23 00:58N 38°27' E 015°54'0 0.0
2017-Nov-23 00:28N 38°27' E 015°54'0 0.0
2017-Nov-22 23:52N 38°27' E 015°54'0 0.0
2017-Nov-22 22:28N 38°27' E 015°54'0 0.0
2017-Nov-22 21:40N 38°27' E 015°54'0 0.0
2017-Nov-22 21:10N 38°27' E 015°54'0 0.0
2017-Nov-22 20:52N 38°27' E 015°54'0 0.0
2017-Nov-22 20:28N 38°27' E 015°54'0 0.0
2017-Nov-22 19:52N 38°27' E 015°54'0 0.0
2017-Nov-22 19:16N 38°27' E 015°54'  
2017-Nov-18 03:24N 37°57' W 000°11'1218.2
2017-Nov-18 02:43N 37°47' W 000°20'418.3
2017-Nov-18 02:30N 37°44' W 000°23'918.1
2017-Nov-18 02:00N 37°36' W 000°29'917.6
2017-Nov-18 01:30N 37°30' W 000°37'917.9
2017-Nov-18 01:00N 37°24' W 000°45'917.8
2017-Nov-18 00:29N 37°17' W 000°53'917.8
2017-Nov-18 00:00N 37°11' W 001°00'21217.2
2017-Nov-17 11:40N 36°02' W 005°11'318.8
2017-Nov-17 11:30N 36°02' W 005°15'814.8
2017-Nov-17 10:57N 36°06' W 005°24'3 5.8
2017-Nov-17 10:22N 36°08' W 005°26'0 0.3
2017-Nov-17 09:49N 36°08' W 005°26'0 0.0
2017-Nov-17 09:25N 36°08' W 005°26'0 0.0
2017-Nov-17 08:37N 36°08' W 005°26'0 0.0
2017-Nov-17 08:25N 36°08' W 005°26'0 0.0
2017-Nov-17 07:58N 36°08' W 005°26'0 0.0
2017-Nov-17 07:25N 36°08' W 005°26'0 0.0
2017-Nov-17 06:55N 36°08' W 005°26'0 0.0
2017-Nov-17 06:25N 36°08' W 005°26'0 0.0
2017-Nov-17 05:58N 36°08' W 005°26'0 0.0
2017-Nov-17 05:28N 36°08' W 005°26'0 0.0
2017-Nov-17 04:58N 36°08' W 005°26'0 0.0
2017-Nov-17 04:28N 36°08' W 005°26'0 0.0
2017-Nov-17 03:58N 36°08' W 005°26'0 0.0
2017-Nov-17 03:28N 36°08' W 005°26'0 0.0
2017-Nov-17 02:58N 36°08' W 005°26'0 0.0
2017-Nov-17 02:28N 36°08' W 005°26'0 0.0
2017-Nov-17 01:58N 36°08' W 005°26'0 0.1
2017-Nov-17 01:28N 36°09' W 005°26'0 0.1
2017-Nov-17 00:58N 36°08' W 005°26'0 0.0
2017-Nov-17 00:25N 36°08' W 005°26'0 0.0
2017-Nov-16 23:58N 36°08' W 005°26'0 0.0
2017-Nov-16 23:25N 36°08' W 005°26'0 0.0
2017-Nov-16 22:58N 36°08' W 005°26'0 0.0
2017-Nov-16 22:28N 36°08' W 005°26'0 0.0
2017-Nov-16 21:58N 36°08' W 005°26'0 0.0
2017-Nov-16 21:25N 36°08' W 005°26'0 0.0
2017-Nov-16 20:31N 36°08' W 005°26'0 0.0
2017-Nov-16 14:37N 36°08' W 005°26'0 0.0
2017-Nov-16 14:10N 36°08' W 005°26'0 0.0
2017-Nov-16 13:55N 36°08' W 005°26'0 0.0
2017-Nov-16 13:25N 36°08' W 005°26'0 0.0
2017-Nov-16 12:55N 36°08' W 005°26'0 0.1
2017-Nov-16 12:30N 36°08' W 005°26'6 5.5
2017-Nov-16 11:26N 36°04' W 005°21'3 6.9
2017-Nov-16 10:59N 36°03' W 005°18'3 5.7
2017-Nov-16 10:30N 36°00' W 005°20'612.9
2017-Nov-16 10:00N 35°58' W 005°27'  
Track history (hours):
 
Tides and Currents Weather Stations Pressure Air Temp Water Temp Dewpoint Dewpoint Depression Visibility Wind Speed Wind Dir Waves Ship Positions

APL Illinois

Last reported at 2017-Nov-23 18:54 UTC. Time now 2017-Nov-23 20:57 UTC.
Position N 40°50' E 014°17'.

Length 304 m; draft 10.3 m.

Type: Ship (hazmat cat C). MMSI: 249851000.

Date/timePositionNaut miles runAvg speedWind from/ knotsBaromVisibWave heightAir tempDewpointWater temp
2017-Nov-23 18:54N 40°50' E 014°17'0 0.0
2017-Nov-23 18:24N 40°50' E 014°17'0 0.0
2017-Nov-23 17:54N 40°50' E 014°17'0 0.0
2017-Nov-23 17:27N 40°50' E 014°17'0 0.0
2017-Nov-23 16:57N 40°50' E 014°17'0 0.4
2017-Nov-23 16:30N 40°50' E 014°17'2 3.3
2017-Nov-23 16:00N 40°48' E 014°17'4 7.7
2017-Nov-23 15:30N 40°45' E 014°17'714.6
2017-Nov-23 15:00N 40°39' E 014°11'5316.5
2017-Nov-23 11:48N 39°51' E 014°41'615.4
2017-Nov-23 11:26N 39°46' E 014°45'2015.4
2017-Nov-23 10:09N 39°30' E 014°59'215.5
2017-Nov-23 10:00N 39°28' E 015°01'1015.5
2017-Nov-23 09:23N 39°19' E 015°07'1615.3
2017-Nov-23 08:21N 39°06' E 015°17'713.6
2017-Nov-23 07:49N 38°60' E 015°23'414.3
2017-Nov-23 07:30N 38°56' E 015°26'1815.0
2017-Nov-23 06:19N 38°41' E 015°38'515.7
2017-Nov-23 06:00N 38°37' E 015°41'816.1
2017-Nov-23 05:30N 38°31' E 015°48'611.8
2017-Nov-23 05:00N 38°27' E 015°53'1 1.5
2017-Nov-23 04:28N 38°27' E 015°54'0 0.0
2017-Nov-23 03:58N 38°27' E 015°54'0 0.0
2017-Nov-23 03:28N 38°27' E 015°54'0 0.0
2017-Nov-23 02:58N 38°27' E 015°54'0 0.0
2017-Nov-23 02:28N 38°27' E 015°54'0 0.0
2017-Nov-23 01:52N 38°27' E 015°54'0 0.0
2017-Nov-23 01:28N 38°27' E 015°54'0 0.0
2017-Nov-23 00:58N 38°27' E 015°54'0 0.0
2017-Nov-23 00:28N 38°27' E 015°54'0 0.0
2017-Nov-22 23:52N 38°27' E 015°54'0 0.0
2017-Nov-22 22:28N 38°27' E 015°54'0 0.0
2017-Nov-22 21:40N 38°27' E 015°54'0 0.0
2017-Nov-22 21:10N 38°27' E 015°54'0 0.0
2017-Nov-22 20:52N 38°27' E 015°54'0 0.0
2017-Nov-22 20:28N 38°27' E 015°54'0 0.0
2017-Nov-22 19:52N 38°27' E 015°54'0 0.0
2017-Nov-22 19:16N 38°27' E 015°54'  
2017-Nov-18 03:24N 37°57' W 000°11'1218.2
2017-Nov-18 02:43N 37°47' W 000°20'418.3
2017-Nov-18 02:30N 37°44' W 000°23'918.1
2017-Nov-18 02:00N 37°36' W 000°29'917.6
2017-Nov-18 01:30N 37°30' W 000°37'917.9
2017-Nov-18 01:00N 37°24' W 000°45'917.8
2017-Nov-18 00:29N 37°17' W 000°53'917.8
2017-Nov-18 00:00N 37°11' W 001°00'21217.2
2017-Nov-17 11:40N 36°02' W 005°11'318.8
2017-Nov-17 11:30N 36°02' W 005°15'814.8
2017-Nov-17 10:57N 36°06' W 005°24'3 5.8
2017-Nov-17 10:22N 36°08' W 005°26'0 0.3
2017-Nov-17 09:49N 36°08' W 005°26'0 0.0
2017-Nov-17 09:25N 36°08' W 005°26'0 0.0
2017-Nov-17 08:37N 36°08' W 005°26'0 0.0
2017-Nov-17 08:25N 36°08' W 005°26'0 0.0
2017-Nov-17 07:58N 36°08' W 005°26'0 0.0
2017-Nov-17 07:25N 36°08' W 005°26'0 0.0
2017-Nov-17 06:55N 36°08' W 005°26'0 0.0
2017-Nov-17 06:25N 36°08' W 005°26'0 0.0
2017-Nov-17 05:58N 36°08' W 005°26'0 0.0
2017-Nov-17 05:28N 36°08' W 005°26'0 0.0
2017-Nov-17 04:58N 36°08' W 005°26'0 0.0
2017-Nov-17 04:28N 36°08' W 005°26'0 0.0
2017-Nov-17 03:58N 36°08' W 005°26'0 0.0
2017-Nov-17 03:28N 36°08' W 005°26'0 0.0
2017-Nov-17 02:58N 36°08' W 005°26'0 0.0
2017-Nov-17 02:28N 36°08' W 005°26'0 0.0
2017-Nov-17 01:58N 36°08' W 005°26'0 0.1
2017-Nov-17 01:28N 36°09' W 005°26'0 0.1
2017-Nov-17 00:58N 36°08' W 005°26'0 0.0
2017-Nov-17 00:25N 36°08' W 005°26'0 0.0
2017-Nov-16 23:58N 36°08' W 005°26'0 0.0
2017-Nov-16 23:25N 36°08' W 005°26'0 0.0
2017-Nov-16 22:58N 36°08' W 005°26'0 0.0
2017-Nov-16 22:28N 36°08' W 005°26'0 0.0
2017-Nov-16 21:58N 36°08' W 005°26'0 0.0
2017-Nov-16 21:25N 36°08' W 005°26'0 0.0
2017-Nov-16 20:31N 36°08' W 005°26'0 0.0
2017-Nov-16 14:37N 36°08' W 005°26'0 0.0
2017-Nov-16 14:10N 36°08' W 005°26'0 0.0
2017-Nov-16 13:55N 36°08' W 005°26'0 0.0
2017-Nov-16 13:25N 36°08' W 005°26'0 0.0
2017-Nov-16 12:55N 36°08' W 005°26'0 0.1
2017-Nov-16 12:30N 36°08' W 005°26'6 5.5
2017-Nov-16 11:26N 36°04' W 005°21'3 6.9
2017-Nov-16 10:59N 36°03' W 005°18'3 5.7
2017-Nov-16 10:30N 36°00' W 005°20'612.9
2017-Nov-16 10:00N 35°58' W 005°27'  

Dump ship's entire track history